| time (UTC) | temp F | wind direction | speed MPH | gust MPH | rain 1hr in | rain 24hr in | rain mn in | humidity % | barometer mb |
| 20260902125532 | 75 | 0 | 2.0 | 4.0 | 0.00 | 0.00 | 0.00 | 71 | 1014.7 |
| 20260902125025 | 75 | 0 | 2.0 | 6.0 | 0.00 | 0.00 | 0.00 | 71 | 1014.8 |
| 20260902124519 | 74 | 0 | 2.0 | 6.0 | 0.00 | 0.00 | 0.00 | 71 | 1014.8 |
| 20260902123507 | 74 | 0 | 2.0 | 6.0 | 0.00 | 0.00 | 0.00 | 71 | 1014.8 |
| 20260902123000 | 74 | 0 | 2.0 | 4.0 | 0.00 | 0.00 | 0.00 | 71 | 1014.8 |
| 20260902122456 | 73 | 0 | 2.0 | 4.0 | 0.00 | 0.00 | 0.00 | 71 | 1014.9 |
| 20260902121949 | 73 | 0 | 2.0 | 4.0 | 0.00 | 0.00 | 0.00 | 71 | 1014.9 |
| 20260902121447 | 73 | 0 | 1.0 | 3.0 | 0.00 | 0.00 | 0.00 | 71 | 1014.8 |
| 20260902120948 | 73 | 0 | 0.0 | 2.0 | 0.00 | 0.00 | 0.00 | 71 | 1014.9 |
| 20260902120446 | 73 | 0 | 1.0 | 3.0 | 0.00 | 0.00 | 0.00 | 71 | 1014.9 |
| 20260902115443 | 73 | 0 | 1.0 | 3.0 | 0.00 | 0.00 | 0.00 | 71 | 1014.8 |
| 20260902114940 | 72 | 0 | 1.0 | 3.0 | 0.00 | 0.00 | 0.00 | 71 | 1014.7 |
| 20260902114444 | 72 | 0 | 0.0 | 3.0 | 0.00 | 0.00 | 0.00 | 71 | 1014.7 |
| 20260902113941 | 72 | 0 | 0.0 | 0.0 | 0.00 | 0.00 | 0.00 | 71 | 1014.6 |
| 20260902113441 | 72 | 0 | 0.0 | 0.0 | 0.00 | 0.00 | 0.00 | 70 | 1014.7 |
| 20260902112940 | 72 | 0 | 0.0 | 0.0 | 0.00 | 0.00 | 0.00 | 70 | 1014.7 |
| 20260902111941 | 72 | 0 | 0.0 | 0.0 | 0.00 | 0.00 | 0.00 | 70 | 1014.5 |
| 20260902111439 | 72 | 0 | 0.0 | 0.0 | 0.00 | 0.00 | 0.00 | 70 | 1014.5 |
| 20260902110937 | 72 | 0 | 0.0 | 0.0 | 0.00 | 0.00 | 0.00 | 70 | 1014.6 |
| 20260902110436 | 72 | 0 | 0.0 | 0.0 | 0.00 | 0.00 | 0.00 | 70 | 1014.6 |
| 20260902105939 | 72 | 0 | 0.0 | 0.0 | 0.00 | 0.00 | 0.00 | 69 | 1014.6 |
| 20260902105433 | 73 | 0 | 0.0 | 0.0 | 0.00 | 0.00 | 0.00 | 69 | 1014.6 |
| 20260902104927 | 73 | 0 | 0.0 | 0.0 | 0.00 | 0.00 | 0.00 | 69 | 1014.6 |
| 20260902104419 | 73 | 0 | 0.0 | 0.0 | 0.00 | 0.00 | 0.00 | 69 | 1014.6 |
| 20260902103913 | 73 | 0 | 0.0 | 0.0 | 0.00 | 0.00 | 0.00 | 69 | 1014.6 |
| 20260902103409 | 73 | 0 | 0.0 | 0.0 | 0.00 | 0.00 | 0.00 | 69 | 1014.5 |
| 20260902102901 | 73 | 0 | 0.0 | 0.0 | 0.00 | 0.00 | 0.00 | 69 | 1014.6 |
| 20260902102356 | 73 | 0 | 0.0 | 0.0 | 0.00 | 0.00 | 0.00 | 69 | 1014.6 |
| 20260902101849 | 73 | 0 | 0.0 | 0.0 | 0.00 | 0.00 | 0.00 | 69 | 1014.6 |
| 20260902101346 | 73 | 0 | 0.0 | 0.0 | 0.00 | 0.00 | 0.00 | 69 | 1014.5 |
| 20260902100344 | 73 | 0 | 0.0 | 0.0 | 0.00 | 0.00 | 0.00 | 69 | 1014.6 |
| 20260902095346 | 73 | 0 | 0.0 | 0.0 | 0.00 | 0.00 | 0.00 | 69 | 1014.4 |
| 20260902094340 | 74 | 0 | 0.0 | 0.0 | 0.00 | 0.00 | 0.00 | 69 | 1014.2 |
| 20260902093839 | 74 | 0 | 0.0 | 0.0 | 0.00 | 0.00 | 0.00 | 68 | 1014.3 |
| 20260902093340 | 74 | 0 | 0.0 | 0.0 | 0.00 | 0.00 | 0.00 | 68 | 1014.1 |
| 20260902092335 | 74 | 0 | 0.0 | 0.0 | 0.00 | 0.00 | 0.00 | 68 | 1014.2 |
| 20260902091832 | 74 | 0 | 0.0 | 0.0 | 0.00 | 0.00 | 0.00 | 68 | 1014.2 |
| 20260902091336 | 74 | 0 | 0.0 | 0.0 | 0.00 | 0.00 | 0.00 | 68 | 1014.1 |
| 20260902090831 | 74 | 0 | 0.0 | 0.0 | 0.00 | 0.00 | 0.00 | 68 | 1014.1 |
| 20260902090326 | 74 | 0 | 0.0 | 0.0 | 0.00 | 0.00 | 0.00 | 68 | 1014.0 |
| 20260902085825 | 74 | 0 | 0.0 | 0.0 | 0.00 | 0.00 | 0.00 | 68 | 1014.0 |
| 20260902085325 | 75 | 0 | 0.0 | 0.0 | 0.00 | 0.00 | 0.00 | 68 | 1014.1 |
| 20260902084826 | 75 | 0 | 0.0 | 0.0 | 0.00 | 0.00 | 0.00 | 68 | 1014.1 |
| 20260902084322 | 75 | 0 | 0.0 | 0.0 | 0.00 | 0.00 | 0.00 | 68 | 1014.0 |
| 20260902083821 | 75 | 0 | 0.0 | 0.0 | 0.00 | 0.00 | 0.00 | 68 | 1014.1 |
| 20260902083323 | 75 | 0 | 0.0 | 0.0 | 0.00 | 0.00 | 0.00 | 68 | 1014.0 |
| 20260902082815 | 75 | 0 | 0.0 | 0.0 | 0.00 | 0.00 | 0.00 | 68 | 1014.0 |
| 20260902081803 | 75 | 0 | 0.0 | 0.0 | 0.00 | 0.00 | 0.00 | 68 | 1013.9 |
| 20260902081257 | 75 | 0 | 0.0 | 0.0 | 0.00 | 0.00 | 0.00 | 68 | 1013.8 |
| 20260902080753 | 75 | 0 | 0.0 | 0.0 | 0.00 | 0.00 | 0.00 | 68 | 1013.8 |
| 20260902080245 | 75 | 0 | 0.0 | 0.0 | 0.00 | 0.00 | 0.00 | 68 | 1013.9 |
| 20260902075741 | 76 | 0 | 0.0 | 0.0 | 0.00 | 0.00 | 0.00 | 68 | 1013.9 |
| 20260902075232 | 76 | 0 | 0.0 | 0.0 | 0.00 | 0.00 | 0.00 | 68 | 1013.9 |
| 20260902074727 | 76 | 0 | 0.0 | 0.0 | 0.00 | 0.00 | 0.00 | 68 | 1014.0 |
| 20260902074221 | 76 | 0 | 0.0 | 0.0 | 0.00 | 0.00 | 0.00 | 68 | 1014.1 |
| 20260902073714 | 76 | 0 | 0.0 | 0.0 | 0.00 | 0.00 | 0.00 | 68 | 1014.1 |
| 20260902072703 | 76 | 0 | 0.0 | 0.0 | 0.00 | 0.00 | 0.00 | 68 | 1014.0 |
| 20260902072157 | 76 | 0 | 0.0 | 0.0 | 0.00 | 0.00 | 0.00 | 68 | 1014.0 |
| 20260902071145 | 76 | 0 | 0.0 | 0.0 | 0.00 | 0.00 | 0.00 | 68 | 1014.1 |
| 20260902070640 | 76 | 0 | 0.0 | 0.0 | 0.00 | 0.00 | 0.00 | 69 | 1014.0 |
| 20260902070134 | 76 | 0 | 0.0 | 0.0 | 0.00 | 0.00 | 0.00 | 69 | 1014.1 |
| 20260902065626 | 76 | 0 | 0.0 | 0.0 | 0.00 | 0.00 | 0.00 | 69 | 1014.1 |
| 20260902065121 | 76 | 0 | 0.0 | 0.0 | 0.00 | 0.00 | 0.00 | 69 | 1014.1 |
| 20260902064616 | 77 | 0 | 0.0 | 0.0 | 0.00 | 0.00 | 0.00 | 69 | 1014.0 |
| 20260902063603 | 77 | 0 | 0.0 | 0.0 | 0.00 | 0.00 | 0.00 | 69 | 1014.0 |
| 20260902063058 | 77 | 0 | 0.0 | 0.0 | 0.00 | 0.00 | 0.00 | 69 | 1014.1 |
| 20260902062550 | 77 | 0 | 0.0 | 0.0 | 0.00 | 0.00 | 0.00 | 68 | 1014.1 |
| 20260902061539 | 77 | 0 | 0.0 | 4.0 | 0.00 | 0.00 | 0.00 | 68 | 1014.1 |
| 20260902061036 | 77 | 0 | 0.0 | 4.0 | 0.00 | 0.00 | 0.00 | 68 | 1014.2 |
| 20260902060528 | 77 | 0 | 0.0 | 0.0 | 0.00 | 0.00 | 0.00 | 68 | 1014.1 |
| 20260902060021 | 77 | 0 | 0.0 | 0.0 | 0.00 | 0.00 | 0.00 | 68 | 1014.1 |
| 20260902054503 | 78 | 0 | 0.0 | 0.0 | 0.00 | 0.00 | 0.00 | 68 | 1013.9 |
| 20260902053956 | 78 | 0 | 0.0 | 0.0 | 0.00 | 0.00 | 0.00 | 68 | 1013.9 |
| 20260902053452 | 78 | 182 | 0.0 | 0.0 | 0.00 | 0.00 | 0.00 | 69 | 1013.9 |
| 20260902052947 | 78 | 182 | 0.0 | 0.0 | 0.00 | 0.00 | 0.00 | 69 | 1014.0 |
| 20260902052439 | 78 | 0 | 0.0 | 4.0 | 0.00 | 0.00 | 0.00 | 69 | 1013.9 |
| 20260902051933 | 78 | 0 | 0.0 | 4.0 | 0.00 | 0.00 | 0.00 | 69 | 1013.9 |
| 20260902051429 | 78 | 171 | 1.0 | 3.0 | 0.00 | 0.00 | 0.00 | 69 | 1013.9 |
| 20260902050415 | 78 | 185 | 1.0 | 4.0 | 0.00 | 0.00 | 0.00 | 69 | 1013.9 |
| 20260902045911 | 78 | 188 | 1.0 | 4.0 | 0.00 | 0.00 | 0.00 | 69 | 1014.0 |
| 20260902044855 | 78 | 182 | 1.0 | 4.0 | 0.00 | 0.00 | 0.00 | 69 | 1013.9 |
| 20260902044351 | 78 | 177 | 2.0 | 5.0 | 0.00 | 0.00 | 0.00 | 68 | 1014.0 |
| 20260902043844 | 78 | 188 | 2.0 | 5.0 | 0.00 | 0.00 | 0.00 | 68 | 1014.0 |
| 20260902043338 | 78 | 167 | 2.0 | 6.0 | 0.00 | 0.00 | 0.00 | 68 | 1014.0 |
| 20260902042330 | 78 | 0 | 0.0 | 3.0 | 0.00 | 0.00 | 0.00 | 68 | 1014.0 |
| 20260902041820 | 78 | 0 | 0.0 | 0.0 | 0.00 | 0.00 | 0.00 | 68 | 1014.0 |
| 20260902041314 | 78 | 166 | 0.0 | 0.0 | 0.00 | 0.00 | 0.00 | 67 | 1014.0 |
| 20260902040809 | 78 | 166 | 0.0 | 0.0 | 0.00 | 0.00 | 0.00 | 67 | 1014.0 |
| 20260902040302 | 78 | 166 | 0.0 | 0.0 | 0.00 | 0.00 | 0.00 | 67 | 1014.1 |
| 20260902035756 | 79 | 166 | 0.0 | 0.0 | 0.00 | 0.00 | 0.00 | 67 | 1014.2 |
| 20260902035249 | 79 | 166 | 0.0 | 0.0 | 0.00 | 0.00 | 0.00 | 67 | 1014.2 |
| 20260902034744 | 79 | 166 | 0.0 | 0.0 | 0.00 | 0.00 | 0.00 | 67 | 1014.1 |
| 20260902034238 | 79 | 0 | 0.0 | 0.0 | 0.00 | 0.00 | 0.00 | 67 | 1014.1 |
| 20260902033732 | 79 | 167 | 0.0 | 0.0 | 0.00 | 0.00 | 0.00 | 67 | 1014.1 |
| 20260902033226 | 79 | 168 | 0.0 | 0.0 | 0.00 | 0.00 | 0.00 | 67 | 1014.1 |
| 20260902032215 | 79 | 172 | 0.0 | 5.0 | 0.00 | 0.00 | 0.00 | 67 | 1014.2 |
| 20260902031708 | 80 | 167 | 0.0 | 5.0 | 0.00 | 0.00 | 0.00 | 67 | 1014.1 |
| 20260902031202 | 80 | 0 | 0.0 | 0.0 | 0.00 | 0.00 | 0.00 | 66 | 1014.1 |
| 20260902030656 | 80 | 0 | 0.0 | 0.0 | 0.00 | 0.00 | 0.00 | 66 | 1014.2 |
| 20260902030149 | 80 | 0 | 0.0 | 0.0 | 0.00 | 0.00 | 0.00 | 66 | 1014.2 |
| 20260902025644 | 80 | 0 | 0.0 | 1.0 | 0.00 | 0.00 | 0.00 | 66 | 1014.1 |
| 20260902025138 | 80 | 0 | 0.0 | 1.0 | 0.00 | 0.00 | 0.00 | 65 | 1014.1 |
| 20260902024632 | 81 | 0 | 0.0 | 0.0 | 0.00 | 0.00 | 0.00 | 65 | 1014.1 |
| 20260902024125 | 81 | 0 | 0.0 | 0.0 | 0.00 | 0.00 | 0.00 | 65 | 1014.1 |
| 20260902023117 | 81 | 0 | 0.0 | 0.0 | 0.00 | 0.00 | 0.00 | 64 | 1014.1 |
| 20260902022608 | 82 | 0 | 0.0 | 0.0 | 0.00 | 0.00 | 0.00 | 64 | 1014.1 |
| 20260902022102 | 82 | 0 | 0.0 | 1.0 | 0.00 | 0.00 | 0.00 | 64 | 1014.1 |
| 20260902021556 | 82 | 173 | 0.0 | 1.0 | 0.00 | 0.00 | 0.00 | 63 | 1014.1 |
| 20260902020544 | 83 | 0 | 0.0 | 0.0 | 0.00 | 0.00 | 0.00 | 62 | 1014.0 |
| 20260902020038 | 83 | 0 | 0.0 | 0.0 | 0.00 | 0.00 | 0.00 | 62 | 1013.9 |
| 20260902015532 | 83 | 0 | 0.0 | 1.0 | 0.00 | 0.00 | 0.00 | 62 | 1013.9 |
| 20260902015026 | 83 | 0 | 0.0 | 1.0 | 0.00 | 0.00 | 0.00 | 62 | 1014.0 |
| 20260902014519 | 84 | 0 | 0.0 | 1.0 | 0.00 | 0.00 | 0.00 | 61 | 1014.0 |
| 20260902013509 | 84 | 167 | 0.0 | 2.0 | 0.00 | 0.00 | 0.00 | 60 | 1013.9 |
| 20260902013002 | 85 | 140 | 0.0 | 2.0 | 0.00 | 0.00 | 0.00 | 60 | 1013.8 |
| 20260902012455 | 85 | 140 | 0.0 | 2.0 | 0.00 | 0.00 | 0.00 | 59 | 1013.8 |
| 20260902011950 | 85 | 0 | 0.0 | 2.0 | 0.00 | 0.00 | 0.00 | 59 | 1013.7 |
| 20260902011444 | 86 | 140 | 0.0 | 1.0 | 0.00 | 0.00 | 0.00 | 58 | 1013.6 |
| 20260902010432 | 87 | 0 | 0.0 | 0.0 | 0.00 | 0.00 | 0.00 | 57 | 1013.6 |
| 20260902005926 | 87 | 0 | 0.0 | 0.0 | 0.00 | 0.00 | 0.00 | 56 | 1013.6 |
| 20260902004914 | 88 | 232 | 0.0 | 0.0 | 0.00 | 0.00 | 0.00 | 55 | 1013.5 |
| 20260902003904 | 89 | 223 | 0.0 | 0.0 | 0.00 | 0.00 | 0.00 | 54 | 1013.5 |
| 20260902003358 | 89 | 225 | 0.0 | 0.0 | 0.00 | 0.00 | 0.00 | 52 | 1013.5 |
| 20260902002850 | 90 | 225 | 0.0 | 0.0 | 0.00 | 0.00 | 0.00 | 51 | 1013.5 |
| 20260902002343 | 90 | 225 | 0.0 | 0.0 | 0.00 | 0.00 | 0.00 | 50 | 1013.5 |
| 20260902001844 | 91 | 225 | 0.0 | 0.0 | 0.00 | 0.00 | 0.00 | 49 | 1013.5 |
| 20260902001344 | 91 | 264 | 0.0 | 0.0 | 0.00 | 0.00 | 0.00 | 49 | 1013.5 |
| 20260901235844 | 92 | 264 | 0.0 | 0.0 | 0.00 | 0.00 | 0.00 | 48 | 1013.5 |
| 20260901235342 | 93 | 264 | 0.0 | 0.0 | 0.00 | 0.00 | 0.00 | 47 | 1013.5 |
| 20260901234845 | 93 | 264 | 0.0 | 0.0 | 0.00 | 0.00 | 0.00 | 47 | 1013.5 |
| 20260901233343 | 93 | 253 | 0.0 | 0.0 | 0.00 | 0.00 | 0.00 | 48 | 1013.5 |
| 20260901232341 | 92 | 254 | 0.0 | 1.0 | 0.00 | 0.00 | 0.00 | 47 | 1013.6 |
| 20260901231840 | 92 | 288 | 0.0 | 2.0 | 0.00 | 0.00 | 0.00 | 47 | 1013.6 |
| 20260901231345 | 93 | 292 | 0.0 | 2.0 | 0.00 | 0.00 | 0.00 | 46 | 1013.6 |
| 20260901230842 | 93 | 292 | 0.0 | 2.0 | 0.00 | 0.00 | 0.00 | 46 | 1013.6 |
| 20260901225835 | 94 | 225 | 1.0 | 3.0 | 0.00 | 0.00 | 0.00 | 45 | 1013.6 |
| 20260901225340 | 94 | 292 | 1.0 | 3.0 | 0.00 | 0.00 | 0.00 | 45 | 1013.5 |
| 20260901224830 | 94 | 307 | 1.0 | 7.0 | 0.00 | 0.00 | 0.00 | 46 | 1013.5 |
| 20260901224324 | 94 | 227 | 1.0 | 7.0 | 0.00 | 0.00 | 0.00 | 46 | 1013.6 |
| 20260901223818 | 94 | 267 | 1.0 | 3.0 | 0.00 | 0.00 | 0.00 | 44 | 1013.6 |
| 20260901222806 | 95 | 274 | 1.0 | 4.0 | 0.00 | 0.00 | 0.00 | 43 | 1013.6 |
| 20260901221248 | 96 | 265 | 1.0 | 3.0 | 0.00 | 0.00 | 0.00 | 43 | 1013.5 |
| 20260901220742 | 95 | 300 | 1.0 | 4.0 | 0.00 | 0.00 | 0.00 | 44 | 1013.5 |
| 20260901215731 | 95 | 244 | 2.0 | 7.0 | 0.00 | 0.00 | 0.00 | 43 | 1013.5 |
| 20260901215223 | 96 | 248 | 2.0 | 6.0 | 0.00 | 0.00 | 0.00 | 42 | 1013.3 |
| 20260901214718 | 96 | 273 | 2.0 | 6.0 | 0.00 | 0.00 | 0.00 | 42 | 1013.3 |
| 20260901214213 | 95 | 259 | 2.0 | 6.0 | 0.00 | 0.00 | 0.00 | 42 | 1013.3 |
| 20260901213706 | 96 | 180 | 2.0 | 6.0 | 0.00 | 0.00 | 0.00 | 43 | 1013.4 |
| 20260901212655 | 95 | 265 | 3.0 | 7.0 | 0.00 | 0.00 | 0.00 | 42 | 1013.3 |
| 20260901212148 | 95 | 250 | 2.0 | 7.0 | 0.00 | 0.00 | 0.00 | 41 | 1013.4 |
| 20260901211642 | 96 | 236 | 2.0 | 8.0 | 0.00 | 0.00 | 0.00 | 40 | 1013.4 |
| 20260901211138 | 96 | 311 | 2.0 | 9.0 | 0.00 | 0.00 | 0.00 | 42 | 1013.4 |
| 20260901210124 | 96 | 240 | 3.0 | 9.0 | 0.00 | 0.00 | 0.00 | 42 | 1013.4 |
| 20260901205618 | 96 | 247 | 3.0 | 9.0 | 0.00 | 0.00 | 0.00 | 42 | 1013.5 |
| 20260901205114 | 96 | 302 | 3.0 | 9.0 | 0.00 | 0.00 | 0.00 | 42 | 1013.5 |
| 20260901204606 | 96 | 269 | 2.0 | 7.0 | 0.00 | 0.00 | 0.00 | 40 | 1013.5 |
| 20260901204059 | 96 | 219 | 2.0 | 4.0 | 0.00 | 0.00 | 0.00 | 41 | 1013.5 |
| 20260901203553 | 96 | 279 | 3.0 | 9.0 | 0.00 | 0.00 | 0.00 | 41 | 1013.5 |
| 20260901203048 | 95 | 263 | 3.0 | 10.0 | 0.00 | 0.00 | 0.00 | 41 | 1013.6 |
| 20260901202542 | 97 | 290 | 3.0 | 7.0 | 0.00 | 0.00 | 0.00 | 41 | 1013.6 |
| 20260901201530 | 96 | 277 | 3.0 | 9.0 | 0.00 | 0.00 | 0.00 | 43 | 1013.6 |
| 20260901201024 | 96 | 250 | 3.0 | 8.0 | 0.00 | 0.00 | 0.00 | 42 | 1013.7 |
| 20260901195506 | 96 | 184 | 2.0 | 7.0 | 0.00 | 0.00 | 0.00 | 42 | 1013.8 |
| 20260901195001 | 96 | 229 | 2.0 | 6.0 | 0.00 | 0.00 | 0.00 | 42 | 1013.8 |
| 20260901194454 | 96 | 272 | 3.0 | 8.0 | 0.00 | 0.00 | 0.00 | 42 | 1013.8 |
| 20260901193951 | 95 | 275 | 2.0 | 10.0 | 0.00 | 0.00 | 0.00 | 42 | 1013.9 |
| 20260901193451 | 95 | 297 | 2.0 | 10.0 | 0.00 | 0.00 | 0.00 | 43 | 1013.9 |
| 20260901192950 | 95 | 215 | 2.0 | 8.0 | 0.00 | 0.00 | 0.00 | 44 | 1014.0 |
| 20260901192450 | 95 | 257 | 2.0 | 8.0 | 0.00 | 0.00 | 0.00 | 43 | 1014.0 |
| 20260901191951 | 94 | 213 | 3.0 | 9.0 | 0.00 | 0.00 | 0.00 | 44 | 1014.0 |
| 20260901191448 | 94 | 269 | 3.0 | 9.0 | 0.00 | 0.00 | 0.00 | 45 | 1014.1 |
| 20260901190945 | 95 | 257 | 3.0 | 8.0 | 0.00 | 0.00 | 0.00 | 45 | 1014.1 |
| 20260901190447 | 95 | 205 | 3.0 | 9.0 | 0.00 | 0.00 | 0.00 | 43 | 1014.2 |
| 20260901185945 | 94 | 280 | 4.0 | 9.0 | 0.00 | 0.00 | 0.00 | 45 | 1014.2 |
| 20260901185444 | 93 | 286 | 4.0 | 9.0 | 0.00 | 0.00 | 0.00 | 44 | 1014.2 |
| 20260901184943 | 94 | 253 | 3.0 | 8.0 | 0.00 | 0.00 | 0.00 | 46 | 1014.2 |
| 20260901183945 | 94 | 228 | 2.0 | 9.0 | 0.00 | 0.00 | 0.00 | 45 | 1014.2 |
| 20260901183443 | 94 | 342 | 3.0 | 9.0 | 0.00 | 0.00 | 0.00 | 46 | 1014.2 |
| 20260901182944 | 95 | 227 | 3.0 | 9.0 | 0.00 | 0.00 | 0.00 | 45 | 1014.2 |
| 20260901182443 | 94 | 291 | 3.0 | 8.0 | 0.00 | 0.00 | 0.00 | 47 | 1014.1 |
| 20260901181941 | 93 | 248 | 3.0 | 7.0 | 0.00 | 0.00 | 0.00 | 48 | 1014.1 |
| 20260901181441 | 94 | 307 | 3.0 | 8.0 | 0.00 | 0.00 | 0.00 | 47 | 1014.2 |
| 20260901180938 | 93 | 288 | 3.0 | 8.0 | 0.00 | 0.00 | 0.00 | 48 | 1014.2 |
| 20260901180437 | 93 | 275 | 2.0 | 7.0 | 0.00 | 0.00 | 0.00 | 47 | 1014.3 |
| 20260901175939 | 92 | 263 | 2.0 | 7.0 | 0.00 | 0.00 | 0.00 | 49 | 1014.3 |
| 20260901175441 | 92 | 259 | 3.0 | 8.0 | 0.00 | 0.00 | 0.00 | 47 | 1014.4 |
| 20260901174938 | 92 | 276 | 3.0 | 9.0 | 0.00 | 0.00 | 0.00 | 49 | 1014.4 |
| 20260901174437 | 92 | 246 | 3.0 | 9.0 | 0.00 | 0.00 | 0.00 | 48 | 1014.3 |
| 20260901173437 | 92 | 293 | 3.0 | 9.0 | 0.00 | 0.00 | 0.00 | 47 | 1014.5 |
| 20260901172940 | 92 | 207 | 2.0 | 6.0 | 0.00 | 0.00 | 0.00 | 49 | 1014.5 |
| 20260901172436 | 92 | 235 | 2.0 | 7.0 | 0.00 | 0.00 | 0.00 | 49 | 1014.5 |
| 20260901171934 | 91 | 267 | 4.0 | 7.0 | 0.00 | 0.00 | 0.00 | 51 | 1014.5 |
| 20260901171433 | 90 | 236 | 3.0 | 7.0 | 0.00 | 0.00 | 0.00 | 50 | 1014.5 |
| 20260901170933 | 92 | 296 | 2.0 | 7.0 | 0.00 | 0.00 | 0.00 | 48 | 1014.5 |
| 20260901170434 | 91 | 257 | 3.0 | 7.0 | 0.00 | 0.00 | 0.00 | 50 | 1014.6 |
| 20260901165433 | 90 | 262 | 2.0 | 6.0 | 0.00 | 0.00 | 0.00 | 50 | 1014.7 |
| 20260901164933 | 90 | 267 | 2.0 | 6.0 | 0.00 | 0.00 | 0.00 | 51 | 1014.7 |
| 20260901163432 | 88 | 269 | 3.0 | 8.0 | 0.00 | 0.00 | 0.00 | 53 | 1014.9 |
| 20260901162934 | 89 | 263 | 3.0 | 9.0 | 0.00 | 0.00 | 0.00 | 51 | 1014.9 |
| 20260901162436 | 89 | 273 | 5.0 | 9.0 | 0.00 | 0.00 | 0.00 | 52 | 1014.8 |
| 20260901161936 | 87 | 295 | 5.0 | 10.0 | 0.00 | 0.00 | 0.00 | 53 | 1014.9 |
| 20260901161437 | 88 | 279 | 3.0 | 10.0 | 0.00 | 0.00 | 0.00 | 52 | 1014.9 |
| 20260901160935 | 88 | 274 | 3.0 | 8.0 | 0.00 | 0.00 | 0.00 | 53 | 1015.0 |
| 20260901155434 | 87 | 267 | 3.0 | 7.0 | 0.00 | 0.00 | 0.00 | 53 | 1014.8 |
| 20260901154929 | 87 | 245 | 4.0 | 9.0 | 0.00 | 0.00 | 0.00 | 53 | 1014.8 |
| 20260901154429 | 87 | 267 | 4.0 | 9.0 | 0.00 | 0.00 | 0.00 | 53 | 1014.8 |
| 20260901153930 | 87 | 254 | 4.0 | 9.0 | 0.00 | 0.00 | 0.00 | 54 | 1014.8 |
| 20260901153431 | 86 | 271 | 5.0 | 11.0 | 0.00 | 0.00 | 0.00 | 54 | 1014.9 |
| 20260901152928 | 86 | 269 | 5.0 | 11.0 | 0.00 | 0.00 | 0.00 | 54 | 1014.9 |
| 20260901152428 | 86 | 278 | 4.0 | 9.0 | 0.00 | 0.00 | 0.00 | 55 | 1015.0 |
| 20260901151430 | 85 | 248 | 3.0 | 8.0 | 0.00 | 0.00 | 0.00 | 55 | 1014.9 |
| 20260901150930 | 85 | 269 | 3.0 | 8.0 | 0.00 | 0.00 | 0.00 | 56 | 1014.9 |
| 20260901150425 | 85 | 292 | 3.0 | 7.0 | 0.00 | 0.00 | 0.00 | 55 | 1014.8 |
| 20260901145926 | 85 | 283 | 3.0 | 7.0 | 0.00 | 0.00 | 0.00 | 57 | 1014.8 |
| 20260901145424 | 84 | 243 | 4.0 | 9.0 | 0.00 | 0.00 | 0.00 | 57 | 1014.8 |
| 20260901144925 | 83 | 283 | 4.0 | 9.0 | 0.00 | 0.00 | 0.00 | 57 | 1014.8 |
| 20260901144424 | 83 | 298 | 2.0 | 7.0 | 0.00 | 0.00 | 0.00 | 57 | 1014.7 |
| 20260901143927 | 83 | 246 | 1.0 | 6.0 | 0.00 | 0.00 | 0.00 | 58 | 1014.7 |
| 20260901143424 | 83 | 271 | 1.0 | 7.0 | 0.00 | 0.00 | 0.00 | 58 | 1014.8 |
| 20260901142925 | 83 | 238 | 2.0 | 9.0 | 0.00 | 0.00 | 0.00 | 58 | 1014.8 |
| 20260901142428 | 82 | 219 | 3.0 | 9.0 | 0.00 | 0.00 | 0.00 | 59 | 1014.8 |
| 20260901141920 | 82 | 211 | 3.0 | 9.0 | 0.00 | 0.00 | 0.00 | 59 | 1014.8 |
| 20260901141421 | 82 | 285 | 2.0 | 7.0 | 0.00 | 0.00 | 0.00 | 59 | 1014.8 |
| 20260901140921 | 82 | 260 | 2.0 | 7.0 | 0.00 | 0.00 | 0.00 | 60 | 1014.8 |
| 20260901140422 | 81 | 244 | 2.0 | 7.0 | 0.00 | 0.00 | 0.00 | 59 | 1014.8 |
| 20260901135922 | 81 | 234 | 2.0 | 8.0 | 0.00 | 0.00 | 0.00 | 61 | 1014.8 |
| 20260901135421 | 81 | 215 | 2.0 | 8.0 | 0.00 | 0.00 | 0.00 | 61 | 1014.7 |
| 20260901134926 | 80 | 259 | 1.0 | 4.0 | 0.00 | 0.00 | 0.00 | 61 | 1014.7 |
| 20260901134421 | 80 | 219 | 1.0 | 4.0 | 0.00 | 0.00 | 0.00 | 62 | 1014.7 |
| 20260901132416 | 78 | 146 | 0.0 | 4.0 | 0.00 | 0.00 | 0.00 | 65 | 1014.7 |
| 20260901131918 | 77 | 267 | 0.0 | 3.0 | 0.00 | 0.00 | 0.00 | 67 | 1014.7 |
| 20260901131417 | 76 | 175 | 0.0 | 3.0 | 0.00 | 0.00 | 0.00 | 70 | 1014.8 |
| 20260901130917 | 75 | 248 | 0.0 | 3.0 | 0.00 | 0.00 | 0.00 | 71 | 1014.8 |
| 20260901130419 | 75 | 153 | 0.0 | 1.0 | 0.00 | 0.00 | 0.00 | 71 | 1014.8 |
| 20260901125916 | 74 | 249 | 0.0 | 2.0 | 0.00 | 0.00 | 0.00 | 71 | 1014.9 |